CALSPHERE 1 1 00900U 64063C 26258.22184913 .00000463 00000+0 46061-3 0 9993 2 00900 90.2177 73.8550 0026651 24.0568 39.7318 13.76704451 83819 CALSPHERE 2 1 00902U 64063E 26258.48300890 .00000016 00000+0 10759-4 0 9997 2 00902 90.2290 77.9183 0017582 330.7125 89.0711 13.52906356868473 LCS 1 1 01361U 65034C 26258.44588584 .00000015 00000+0 92164-3 0 9998 2 01361 32.1452 322.7255 0011189 82.3118 277.8649 9.89310727218829 TEMPSAT 1 1 01512U 65065E 26258.34156573 .00000040 00000+0 61670-4 0 9995 2 01512 90.0061 212.6116 0069748 357.1750 157.3338 13.33598406972064 CALSPHERE 4A 1 01520U 65065H 26258.46460948 .00000078 00000+0 13285-3 0 9990 2 01520 89.8902 121.5775 0068624 207.6832 270.0289 13.36291173974765 OPS 5712 (P/L 160) 1 02826U 67053A 26258.38342138 .00006535 00000+0 89867-3 0 9993 2 02826 69.9165 177.0349 0004035 271.3605 88.7081 14.78725283 79569 OPS 5712 (P/L 153) 1 02874U 67053H 26258.06420206 .00000004 00000+0 41050-4 0 9992 2 02874 69.9723 282.6603 0004575 71.1300 289.0301 13.96839152 19346 RIGIDSPHERE 2 (LCS 4) 1 05398U 71067E 26258.51919818 .00000418 00000+0 13019-3 0 9990 2 05398 87.6212 313.7383 0057553 293.9070 65.6106 14.37956625886864 COSMOS 2493 (SKRL-756 1) 1 39490U 13078A 26258.46636003 .00002001 00000+0 14834-3 0 9990 2 39490 82.4156 172.8472 0011437 303.3998 56.6132 15.02559455691511 COSMOS 2494 (SKRL-756 2) 1 39491U 13078B 26258.49967461 .00002114 00000+0 14552-3 0 9991 2 39491 82.4148 161.8253 0014417 256.6112 103.3508 15.05328202692398